Hourly Weather Siedliska

Today, 30 September, Wednesday

Time Temperature Precipitation Wind Pressure Humidity
00:00 +12°C° 0.3 mm 4 mps 744 mmHg 93%
01:00 +12°C° 0 mm 4 mps 744 mmHg 92%
02:00 +12°C° 0.6 mm 4 mps 743 mmHg 93%
03:00 +12°C° 0.6 mm 4 mps 743 mmHg 93%
04:00 +12°C° 0.6 mm 4 mps 743 mmHg 93%
05:00 +12°C° 0.1 mm 4 mps 743 mmHg 93%
06:00 +12°C° 0.1 mm 4 mps 743 mmHg 93%
07:00 +12°C° 0 mm 4 mps 743 mmHg 94%
08:00 +12°C° 0 mm 4 mps 743 mmHg 91%
09:00 +13°C° 0 mm 5 mps 743 mmHg 88%
10:00 +14°C° 0 mm 5 mps 743 mmHg 84%
11:00 +14°C° 0.1 mm 5 mps 743 mmHg 83%
12:00 +14°C° 0.1 mm 5 mps 742 mmHg 82%
13:00 +14°C° 0.1 mm 5 mps 742 mmHg 81%
14:00 +14°C° 0 mm 5 mps 742 mmHg 79%
15:00 +15°C° 0 mm 6 mps 741 mmHg 76%
16:00 +15°C° 0 mm 6 mps 741 mmHg 74%
17:00 +14°C° 0.2 mm 6 mps 741 mmHg 76%
18:00 +14°C° 0.2 mm 5 mps 741 mmHg 77%
19:00 +13°C° 0.2 mm 5 mps 741 mmHg 79%
20:00 +13°C° 0.7 mm 5 mps 741 mmHg 81%
21:00 +13°C° 0.7 mm 5 mps 740 mmHg 83%
22:00 +12°C° 0.7 mm 5 mps 740 mmHg 84%
23:00 +12°C° 0.9 mm 5 mps 740 mmHg 87%

Tomorrow, 1 October, Thursday

Time Temperature Precipitation Wind Pressure Humidity
00:00 +12°C° 0.9 mm 5 mps 740 mmHg 90%
01:00 +12°C° 0.9 mm 5 mps 740 mmHg 93%
02:00 +12°C° 0.7 mm 5 mps 739 mmHg 94%
03:00 +12°C° 0.7 mm 4 mps 739 mmHg 95%
04:00 +12°C° 0.7 mm 4 mps 738 mmHg 95%
05:00 +12°C° 0.7 mm 4 mps 738 mmHg 95%
06:00 +11°C° 0.7 mm 4 mps 738 mmHg 95%
07:00 +11°C° 0.7 mm 4 mps 738 mmHg 95%
08:00 +11°C° 0.3 mm 4 mps 738 mmHg 95%
09:00 +12°C° 0.3 mm 3 mps 737 mmHg 94%
10:00 +12°C° 0.3 mm 3 mps 737 mmHg 94%
11:00 +12°C° 0.2 mm 3 mps 737 mmHg 94%
12:00 +12°C° 0.2 mm 3 mps 737 mmHg 93%
13:00 +12°C° 0.2 mm 3 mps 737 mmHg 93%
14:00 +12°C° 0.2 mm 3 mps 737 mmHg 93%
15:00 +13°C° 0.2 mm 2 mps 737 mmHg 94%
16:00 +13°C° 0.2 mm 2 mps 736 mmHg 94%
17:00 +12°C° 0.5 mm 2 mps 737 mmHg 94%
18:00 +12°C° 0.5 mm 1 mps 737 mmHg 95%
19:00 +12°C° 0.5 mm 1 mps 737 mmHg 96%
20:00 +12°C° 0.2 mm 1 mps 737 mmHg 96%
21:00 +12°C° 0.2 mm 1 mps 737 mmHg 96%
22:00 +12°C° 0.2 mm 1 mps 737 mmHg 96%
23:00 +12°C° 0.1 mm 1 mps 737 mmHg 95%

Day after tomorrow, 2 October, Friday

Time Temperature Precipitation Wind Pressure Humidity
00:00 +12°C° 0.1 mm 1 mps 737 mmHg 95%
01:00 +12°C° 0.1 mm 1 mps 737 mmHg 95%
02:00 +11°C° 0.1 mm 0 mps 737 mmHg 95%
03:00 +11°C° 0.1 mm 0 mps 737 mmHg 95%
04:00 +11°C° 0.1 mm 0 mps 737 mmHg 95%
05:00 +11°C° 0 mm 0 mps 737 mmHg 94%
06:00 +12°C° 0 mm 1 mps 737 mmHg 93%
07:00 +12°C° 0 mm 1 mps 737 mmHg 93%
08:00 +13°C° 0 mm 1 mps 737 mmHg 88%
09:00 +14°C° 0 mm 1 mps 737 mmHg 83%
10:00 +16°C° 0 mm 2 mps 738 mmHg 78%
11:00 +16°C° 0 mm 2 mps 738 mmHg 75%
12:00 +17°C° 0 mm 2 mps 738 mmHg 72%
13:00 +18°C° 0 mm 2 mps 738 mmHg 69%
14:00 +18°C° 0 mm 2 mps 737 mmHg 69%
15:00 +18°C° 0 mm 2 mps 737 mmHg 69%
16:00 +18°C° 0 mm 2 mps 737 mmHg 69%
17:00 +17°C° 0 mm 3 mps 737 mmHg 73%
18:00 +16°C° 0 mm 3 mps 737 mmHg 76%
19:00 +15°C° 0 mm 4 mps 737 mmHg 80%
20:00 +15°C° 0 mm 4 mps 737 mmHg 79%
21:00 +15°C° 0 mm 4 mps 737 mmHg 78%
22:00 +15°C° 0 mm 4 mps 737 mmHg 77%
23:00 +14°C° 0 mm 4 mps 736 mmHg 77%

3 October, Saturday

Time Temperature Precipitation Wind Pressure Humidity
00:00 +14°C° 0 mm 5 mps 736 mmHg 77%
01:00 +14°C° 0 mm 5 mps 736 mmHg 78%
02:00 +14°C° 0 mm 4 mps 736 mmHg 79%
03:00 +14°C° 0 mm 4 mps 735 mmHg 80%
04:00 +13°C° 0 mm 4 mps 735 mmHg 82%
05:00 +14°C° 0 mm 4 mps 735 mmHg 81%
06:00 +14°C° 0 mm 4 mps 735 mmHg 81%
07:00 +14°C° 0 mm 4 mps 734 mmHg 80%
08:00 +16°C° 0 mm 5 mps 734 mmHg 71%
09:00 +20°C° 0 mm 6 mps 734 mmHg 62%
10:00 +22°C° 0 mm 7 mps 734 mmHg 53%
11:00 +23°C° 0 mm 8 mps 734 mmHg 51%
12:00 +24°C° 0 mm 8 mps 734 mmHg 49%
13:00 +26°C° 0 mm 9 mps 734 mmHg 46%
14:00 +24°C° 0 mm 8 mps 734 mmHg 50%
15:00 +24°C° 0 mm 7 mps 734 mmHg 53%
16:00 +23°C° 0 mm 5 mps 734 mmHg 57%
17:00 +22°C° 0 mm 5 mps 734 mmHg 59%
18:00 +21°C° 0 mm 5 mps 734 mmHg 61%
19:00 +20°C° 0 mm 5 mps 734 mmHg 64%
20:00 +20°C° 0 mm 5 mps 733 mmHg 63%
21:00 +20°C° 0 mm 5 mps 733 mmHg 63%
22:00 +21°C° 0 mm 5 mps 733 mmHg 62%
23:00 +21°C° 0 mm 5 mps 733 mmHg 61%

4 October, Sunday

Time Temperature Precipitation Wind Pressure Humidity
00:00 +21°C° 0 mm 5 mps 733 mmHg 60%
01:00 +21°C° 0 mm 5 mps 732 mmHg 58%
02:00 +21°C° 0 mm 6 mps 732 mmHg 60%
03:00 +21°C° 0 mm 7 mps 732 mmHg 62%
04:00 +20°C° 0 mm 7 mps 732 mmHg 64%
05:00 +20°C° 0 mm 6 mps 732 mmHg 67%
06:00 +19°C° 0 mm 5 mps 732 mmHg 71%
07:00 +18°C° 0 mm 4 mps 733 mmHg 74%
08:00 +19°C° 0 mm 5 mps 734 mmHg 68%
09:00 +19°C° 0 mm 6 mps 734 mmHg 62%
10:00 +20°C° 0 mm 8 mps 735 mmHg 56%
11:00 +20°C° 0 mm 7 mps 735 mmHg 55%
12:00 +21°C° 0 mm 7 mps 736 mmHg 54%
13:00 +21°C° 0 mm 6 mps 736 mmHg 53%
14:00 +21°C° 0 mm 5 mps 737 mmHg 54%
15:00 +21°C° 0 mm 4 mps 737 mmHg 56%
16:00 +21°C° 0 mm 3 mps 737 mmHg 57%
17:00 +20°C° 0 mm 3 mps 737 mmHg 60%
18:00 +19°C° 0 mm 3 mps 737 mmHg 62%
19:00 +17°C° 0 mm 3 mps 737 mmHg 64%
20:00 +17°C° 0 mm 3 mps 737 mmHg 65%
21:00 +16°C° 0 mm 3 mps 737 mmHg 66%
22:00 +16°C° 0 mm 3 mps 737 mmHg 67%
23:00 +14°C° 0 mm 3 mps 737 mmHg 68%

5 October, Monday

Time Temperature Precipitation Wind Pressure Humidity
00:00 +14°C° 0 mm 3 mps 736 mmHg 69%
01:00 +14°C° 0 mm 3 mps 736 mmHg 70%
02:00 +13°C° 0 mm 3 mps 736 mmHg 69%
03:00 +13°C° 0 mm 3 mps 735 mmHg 67%
04:00 +14°C° 0 mm 2 mps 735 mmHg 66%
05:00 +14°C° 0.1 mm 2 mps 735 mmHg 68%
06:00 +15°C° 0.1 mm 2 mps 735 mmHg 70%
07:00 +15°C° 0.1 mm 2 mps 734 mmHg 72%
08:00 +17°C° 0 mm 3 mps 734 mmHg 66%
09:00 +18°C° 0 mm 4 mps 734 mmHg 61%
10:00 +20°C° 0 mm 5 mps 734 mmHg 55%
11:00 +21°C° 0 mm 6 mps 734 mmHg 53%
12:00 +21°C° 0 mm 6 mps 734 mmHg 52%
13:00 +22°C° 0 mm 7 mps 734 mmHg 50%
14:00 +20°C° 0.8 mm 6 mps 734 mmHg 61%
15:00 +17°C° 0.8 mm 5 mps 733 mmHg 72%
16:00 +15°C° 0.8 mm 5 mps 733 mmHg 83%
17:00 +14°C° 0.2 mm 5 mps 734 mmHg 83%
18:00 +14°C° 0.2 mm 4 mps 734 mmHg 82%
19:00 +14°C° 0.2 mm 4 mps 734 mmHg 82%
20:00 +13°C° 0.2 mm 4 mps 735 mmHg 83%
21:00 +13°C° 0.2 mm 4 mps 735 mmHg 83%
22:00 +12°C° 0.2 mm 3 mps 735 mmHg 84%
23:00 +12°C° 0 mm 3 mps 735 mmHg 85%
Show more

We Need Your Consent

Meteoprog and our Service Providers may store and access personal data such as cookies, device identifiers or other similar technologies on your device and process such data to personalise content and ads, as well as provide social media features and to analyse the traffic.

  • Store and/or access information on your device

    Cookies, device identifiers or other information can be stored or accessed on your device for the purposes indicated above.

  • Personalised ads and content, ad and content measurement, audience insights, and products development

    Ads and content can be personalised based on a profile. More data can be added to better personalise ads and content. Ad and content performance can be measured. Insights about the audience who saw the ads and content can be derived. Such data can be used to develop or improve user’s experience, systems and software.

By clicking ‘I Agree’ you will allow the use of indicated cookies, device identifiers, web beacons or other similar technologies. Your settings can be changed in the browser on your device.

For certain purposes, legitimate interests may be relied on, rather than consent. You can read more about this in our Privacy and Cookie Policy.